{"data":{"norad_id":63755,"intl_designator":"2025-089E","name":"STARLINK-11681 [DTC]","alt_names":[],"object_type":"PAYLOAD","status":"ACTIVE","operator":null,"country":"US","launch_date":"2025-04-29","launch_site_code":"AFETR","launch_vehicle":null,"mission":null,"orbit_class":"UNKNOWN","rcs_meters":null,"size_class":null,"mass_kg":null,"dimensions":null,"purposes":["comms"],"wikipedia_slug":null,"has_3d_model":false,"image_url":null,"decayed_at":null,"tle_current":{"epoch":"2026-09-20T18:26:13.393248Z","epoch_age_seconds":126661,"freshness":"FRESH","line1":"1 63755U 25089E   26263.76821057  .00170539  00000+0  13006-2 0  9991","line2":"2 63755  43.0006 196.6117 0002203 246.9900 113.0735 15.70927109 80817","mean_motion":15.70927109,"eccentricity":0.0002203,"inclination_deg":43.0006,"raan_deg":196.6117,"arg_perigee_deg":246.99,"mean_anomaly_deg":113.0735,"bstar":0.0013006,"rev_number":8081,"period_min":91.665615275852,"perigee_km":354.76251465195,"apogee_km":357.72968384548,"semimajor_km":6734.3830992487,"source":"CELESTRAK","updated_at":"2026-09-21T09:00:35.093395Z"}}}